Flag for Brazil Weather past 2 weeks in Boa Vista, Roraima, Brazil

Now
84 °F

Partly sunny.


Feels Like: 88 °F
Forecast: 73 / 85 °F
Wind: 3 mph from Northwest

Location: Boa Vista Aeropor-To

Current Time: Aug 1, 2015 at 3:13:12 PM

Latest Report: Aug 1, 2015 at 2:00 PM


Visibility: N/A

Pressure: 29.86 "Hg

Humidity: 62%

Dew point: 70 °F

Location of Boa VistaLocation

Historic Weather in Boa Vista — Graph

°F

Boa Vista temperature yesterday

Maximum temperature yesterday: 81 °F (at 11:00 AM)
Minimum temperature yesterday: 45 °F (at 4:00 PM)
Average temperature yesterday: 73 °F

Past Weeks' High & Low Weather Summary

 TemperatureHumidityPressure
High90 °F (Jul 29, 3:00 PM)100% (Jul 22, 5:00 AM)30.07 "Hg (Jul 22, 5:00 AM)
Low32 °F (Jul 22, 5:00 AM)19% (Jul 21, 7:00 PM)29.80 "Hg (Jul 27, 4:00 PM)
Average77 °F80%29.94 "Hg
* Reported Jul 17 2:00 PM — Aug 1 2:00 PM, Boa Vista, Weather by CustomWeather, © 2015

Note: Actual official high and low records may vary slightly from our data, if they occured in-between our weather recording intervals... More about our weather records

Advertising

Boa Vista weather history for previous 24 hours

 ConditionsComfort  
Time TempWeatherWind HumidityBarometerVisibility
2:00 PM
Sat, Aug 1
84 °FPartly sunny.3 mph62%29.86 "HgN/A
1:00 PM84 °FPartly sunny.6 mph66%29.92 "HgN/A
12:00 PM82 °FPartly sunny.5 mph70%29.95 "HgN/A
11:00 AM79 °FPartly sunny.5 mph79%29.98 "HgN/A
10:00 AM75 °FBroken clouds.No wind89%29.98 "HgN/A
9:00 AM73 °FBroken clouds.No wind94%29.98 "HgN/A
8:00 AM73 °FThunderstorms. Partly sunny.2 mph94%29.98 "Hg1 mi
7:00 AM73 °FPartly sunny.No wind94%29.95 "HgN/A
6:00 AM73 °FPassing clouds.2 mph94%29.92 "HgN/A
5:00 AM73 °FFog.3 mph94%29.92 "Hg0 mi
4:00 AM73 °FPartly cloudy.1 mph94%29.89 "HgN/A
3:00 AM73 °FClear.2 mph94%29.92 "Hg10 mi
2:00 AM73 °FClear.No wind94%29.92 "Hg10 mi
1:00 AM75 °FPassing clouds.3 mph89%29.95 "HgN/A
12:00 AM73 °FPassing clouds.2 mph94%29.98 "HgN/A
11:00 PM
Fri, Jul 31
75 °FPassing clouds.No wind89%29.95 "HgN/A
10:00 PM75 °FPassing clouds.No wind89%29.95 "HgN/A
9:00 PM73 °FPassing clouds.3 mph94%29.92 "HgN/A
8:00 PM73 °FPassing clouds.5 mph94%29.92 "HgN/A
7:00 PM73 °FPassing clouds.7 mph89%29.89 "HgN/A
6:00 PM75 °FPartly sunny.2 mph94%29.86 "HgN/A
5:00 PM75 °FPartly sunny.3 mph89%29.86 "HgN/A
4:00 PM45 °FScattered showers. Broken clouds.12 mph100%29.86 "HgN/A
3:00 PM81 °FPartly sunny.6 mph79%29.86 "HgN/A
Weather by CustomWeather, © 2015

See weather overviewHow to use our weather pages